owner,sensor,date,latitude,longitude,mass_concentration_of_chlorophyll_in_sea_water,qcFlag 
SCCF RECON,ioos:station:SCCF:56:1,2017-11-01T04:00:00Z,26.4645,-82.1044,6.42,1111122 
SCCF RECON,ioos:station:SCCF:56:1,2017-11-01T05:00:00Z,26.4645,-82.1044,5.74,1111122 
SCCF RECON,ioos:station:SCCF:56:1,2017-11-01T06:00:00Z,26.4645,-82.1044,5.29,1111122 
SCCF RECON,ioos:station:SCCF:56:1,2017-11-01T07:00:00Z,26.4645,-82.1044,5.38,1111122 
SCCF RECON,ioos:station:SCCF:56:1,2017-11-01T08:00:00Z,26.4645,-82.1044,5.11,1111122 
SCCF RECON,ioos:station:SCCF:56:1,2017-11-01T09:00:00Z,26.4645,-82.1044,5.08,1111122 
SCCF RECON,ioos:station:SCCF:56:1,2017-11-01T10:00:00Z,26.4645,-82.1044,5.03,1111122 
SCCF RECON,ioos:station:SCCF:56:1,2017-11-01T11:00:00Z,26.4645,-82.1044,4.96,1111122 
SCCF RECON,ioos:station:SCCF:56:1,2017-11-01T12:00:00Z,26.4645,-82.1044,4.95,1111122 
SCCF RECON,ioos:station:SCCF:56:1,2017-11-01T13:00:00Z,26.4645,-82.1044,5.57,1111122 
SCCF RECON,ioos:station:SCCF:56:1,2017-11-01T14:00:00Z,26.4645,-82.1044,5.27,1111122 
SCCF RECON,ioos:station:SCCF:56:1,2017-11-01T15:00:00Z,26.4645,-82.1044,5.3,1111122 
SCCF RECON,ioos:station:SCCF:56:1,2017-11-01T16:00:00Z,26.4645,-82.1044,5.35,1111122 
SCCF RECON,ioos:station:SCCF:56:1,2017-11-01T17:00:00Z,26.4645,-82.1044,5.2,1111122 
SCCF RECON,ioos:station:SCCF:56:1,2017-11-01T18:00:00Z,26.4645,-82.1044,5.19,1111122 
SCCF RECON,ioos:station:SCCF:56:1,2017-11-01T19:00:00Z,26.4645,-82.1044,6.19,1111122 
SCCF RECON,ioos:station:SCCF:56:1,2017-11-01T20:00:00Z,26.4645,-82.1044,6.51,1111122 
SCCF RECON,ioos:station:SCCF:56:1,2017-11-01T21:00:00Z,26.4645,-82.1044,7.26,1111122 
SCCF RECON,ioos:station:SCCF:56:1,2017-11-01T22:00:00Z,26.4645,-82.1044,7.98,1111122 
SCCF RECON,ioos:station:SCCF:56:1,2017-11-02T04:00:00Z,26.4645,-82.1044,7.07,1111122 
SCCF RECON,ioos:station:SCCF:56:1,2017-11-02T05:00:00Z,26.4645,-82.1044,6.6,1111122 
SCCF RECON,ioos:station:SCCF:56:1,2017-11-02T06:00:00Z,26.4645,-82.1044,5.93,1111122 
SCCF RECON,ioos:station:SCCF:56:1,2017-11-02T07:00:00Z,26.4645,-82.1044,5.83,1111122 
SCCF RECON,ioos:station:SCCF:56:1,2017-11-02T08:00:00Z,26.4645,-82.1044,5.45,1111122 
SCCF RECON,ioos:station:SCCF:56:1,2017-11-02T09:00:00Z,26.4645,-82.1044,5.51,1111122 
SCCF RECON,ioos:station:SCCF:56:1,2017-11-02T10:00:00Z,26.4645,-82.1044,5.27,1111122 
SCCF RECON,ioos:station:SCCF:56:1,2017-11-02T11:00:00Z,26.4645,-82.1044,5.21,1111122 
SCCF RECON,ioos:station:SCCF:56:1,2017-11-02T12:00:00Z,26.4645,-82.1044,5.29,1111122 
SCCF RECON,ioos:station:SCCF:56:1,2017-11-02T13:00:00Z,26.4645,-82.1044,5.52,1111122 
SCCF RECON,ioos:station:SCCF:56:1,2017-11-02T14:00:00Z,26.4645,-82.1044,5.67,1111122 
SCCF RECON,ioos:station:SCCF:56:1,2017-11-02T15:00:00Z,26.4645,-82.1044,5.82,1111122 
SCCF RECON,ioos:station:SCCF:56:1,2017-11-02T16:00:00Z,26.4645,-82.1044,6.14,1111122 
SCCF RECON,ioos:station:SCCF:56:1,2017-11-02T17:00:00Z,26.4645,-82.1044,6.48,1111122 
SCCF RECON,ioos:station:SCCF:56:1,2017-11-02T18:00:00Z,26.4645,-82.1044,5.86,1111122 
SCCF RECON,ioos:station:SCCF:56:1,2017-11-02T19:00:00Z,26.4645,-82.1044,6.75,1111122 
SCCF RECON,ioos:station:SCCF:56:1,2017-11-02T20:00:00Z,26.4645,-82.1044,6.8,1111122 
SCCF RECON,ioos:station:SCCF:56:1,2017-11-02T21:00:00Z,26.4645,-82.1044,7.58,1111122 
SCCF RECON,ioos:station:SCCF:56:1,2017-11-02T22:00:00Z,26.4645,-82.1044,7.81,1111122 
SCCF RECON,ioos:station:SCCF:56:1,2017-11-03T04:00:00Z,26.4645,-82.1044,7.89,1111122 
SCCF RECON,ioos:station:SCCF:56:1,2017-11-03T05:00:00Z,26.4645,-82.1044,8.84,1111122 
SCCF RECON,ioos:station:SCCF:56:1,2017-11-03T06:00:00Z,26.4645,-82.1044,7.27,1111122 
SCCF RECON,ioos:station:SCCF:56:1,2017-11-03T07:00:00Z,26.4645,-82.1044,6.44,1111122 
SCCF RECON,ioos:station:SCCF:56:1,2017-11-03T08:00:00Z,26.4645,-82.1044,5.91,1111122 
SCCF RECON,ioos:station:SCCF:56:1,2017-11-03T09:00:00Z,26.4645,-82.1044,5.96,1111122 
SCCF RECON,ioos:station:SCCF:56:1,2017-11-03T10:00:00Z,26.4645,-82.1044,5.83,1111122 
SCCF RECON,ioos:station:SCCF:56:1,2017-11-03T11:00:00Z,26.4645,-82.1044,5.57,1111122 
SCCF RECON,ioos:station:SCCF:56:1,2017-11-03T12:00:00Z,26.4645,-82.1044,5.51,1111122 
SCCF RECON,ioos:station:SCCF:56:1,2017-11-03T13:00:00Z,26.4645,-82.1044,5.9,1111122 
SCCF RECON,ioos:station:SCCF:56:1,2017-11-03T14:00:00Z,26.4645,-82.1044,6.26,1111122 
SCCF RECON,ioos:station:SCCF:56:1,2017-11-03T15:00:00Z,26.4645,-82.1044,5.84,1111122 
SCCF RECON,ioos:station:SCCF:56:1,2017-11-03T16:00:00Z,26.4645,-82.1044,5.59,1111122 
SCCF RECON,ioos:station:SCCF:56:1,2017-11-03T17:00:00Z,26.4645,-82.1044,6.11,1111122 
SCCF RECON,ioos:station:SCCF:56:1,2017-11-03T18:00:00Z,26.4645,-82.1044,6.98,1111122 
SCCF RECON,ioos:station:SCCF:56:1,2017-11-03T19:00:00Z,26.4645,-82.1044,6.34,1111122 
SCCF RECON,ioos:station:SCCF:56:1,2017-11-03T20:00:00Z,26.4645,-82.1044,7.8,1111122 
SCCF RECON,ioos:station:SCCF:56:1,2017-11-03T21:00:00Z,26.4645,-82.1044,7.59,1111122 
SCCF RECON,ioos:station:SCCF:56:1,2017-11-03T22:00:00Z,26.4645,-82.1044,7.7,1111122 
SCCF RECON,ioos:station:SCCF:56:1,2017-11-04T04:00:00Z,26.4645,-82.1044,7.29,1111122 
SCCF RECON,ioos:station:SCCF:56:1,2017-11-04T05:00:00Z,26.4645,-82.1044,7.71,1111122 
SCCF RECON,ioos:station:SCCF:56:1,2017-11-04T06:00:00Z,26.4645,-82.1044,6.69,1111122 
SCCF RECON,ioos:station:SCCF:56:1,2017-11-04T07:00:00Z,26.4645,-82.1044,5.98,1111122 
SCCF RECON,ioos:station:SCCF:56:1,2017-11-04T08:00:00Z,26.4645,-82.1044,5.94,1111122 
SCCF RECON,ioos:station:SCCF:56:1,2017-11-04T09:00:00Z,26.4645,-82.1044,5.44,1111122 
SCCF RECON,ioos:station:SCCF:56:1,2017-11-04T10:00:00Z,26.4645,-82.1044,5.3,1111122 
SCCF RECON,ioos:station:SCCF:56:1,2017-11-04T11:00:00Z,26.4645,-82.1044,5.16,1111122 
SCCF RECON,ioos:station:SCCF:56:1,2017-11-04T12:00:00Z,26.4645,-82.1044,5.17,1111122 
SCCF RECON,ioos:station:SCCF:56:1,2017-11-04T13:00:00Z,26.4645,-82.1044,5.37,1111122 
SCCF RECON,ioos:station:SCCF:56:1,2017-11-04T14:00:00Z,26.4645,-82.1044,5.59,1111122 
SCCF RECON,ioos:station:SCCF:56:1,2017-11-04T15:00:00Z,26.4645,-82.1044,5.41,1111122 
SCCF RECON,ioos:station:SCCF:56:1,2017-11-04T16:00:00Z,26.4645,-82.1044,5.33,1111122 
SCCF RECON,ioos:station:SCCF:56:1,2017-11-04T17:00:00Z,26.4645,-82.1044,4.87,1111122 
SCCF RECON,ioos:station:SCCF:56:1,2017-11-04T18:00:00Z,26.4645,-82.1044,6.04,1111122 
SCCF RECON,ioos:station:SCCF:56:1,2017-11-04T19:00:00Z,26.4645,-82.1044,7.08,1111122 
SCCF RECON,ioos:station:SCCF:56:1,2017-11-04T20:00:00Z,26.4645,-82.1044,5.39,1111122 
SCCF RECON,ioos:station:SCCF:56:1,2017-11-04T21:00:00Z,26.4645,-82.1044,6.56,1111122 
SCCF RECON,ioos:station:SCCF:56:1,2017-11-04T22:00:00Z,26.4645,-82.1044,6.74,1111122 
SCCF RECON,ioos:station:SCCF:56:1,2017-11-05T04:00:00Z,26.4645,-82.1044,6.36,1111122 
SCCF RECON,ioos:station:SCCF:56:1,2017-11-05T05:00:00Z,26.4645,-82.1044,6.09,1111122 
SCCF RECON,ioos:station:SCCF:56:1,2017-11-05T06:00:00Z,26.4645,-82.1044,6.48,1111122 
SCCF RECON,ioos:station:SCCF:56:1,2017-11-05T07:00:00Z,26.4645,-82.1044,4.91,1111122 
SCCF RECON,ioos:station:SCCF:56:1,2017-11-05T08:00:00Z,26.4645,-82.1044,5.13,1111122 
SCCF RECON,ioos:station:SCCF:56:1,2017-11-05T09:00:00Z,26.4645,-82.1044,11.33,1111122 
SCCF RECON,ioos:station:SCCF:56:1,2017-11-05T10:00:00Z,26.4645,-82.1044,4.99,1111122 
SCCF RECON,ioos:station:SCCF:56:1,2017-11-05T11:00:00Z,26.4645,-82.1044,4.97,1111122 
SCCF RECON,ioos:station:SCCF:56:1,2017-11-05T12:00:00Z,26.4645,-82.1044,4.98,1111122 
SCCF RECON,ioos:station:SCCF:56:1,2017-11-05T13:00:00Z,26.4645,-82.1044,5.06,1111122 
SCCF RECON,ioos:station:SCCF:56:1,2017-11-05T14:00:00Z,26.4645,-82.1044,5.39,1111122 
SCCF RECON,ioos:station:SCCF:56:1,2017-11-05T15:00:00Z,26.4645,-82.1044,5.12,1111122 
SCCF RECON,ioos:station:SCCF:56:1,2017-11-05T16:00:00Z,26.4645,-82.1044,4.85,1111122 
SCCF RECON,ioos:station:SCCF:56:1,2017-11-05T17:00:00Z,26.4645,-82.1044,4.59,1111122 
SCCF RECON,ioos:station:SCCF:56:1,2017-11-05T18:00:00Z,26.4645,-82.1044,5.12,1111122 
SCCF RECON,ioos:station:SCCF:56:1,2017-11-05T19:00:00Z,26.4645,-82.1044,5.85,1111122 
SCCF RECON,ioos:station:SCCF:56:1,2017-11-05T20:00:00Z,26.4645,-82.1044,6.55,1111122 
SCCF RECON,ioos:station:SCCF:56:1,2017-11-05T21:00:00Z,26.4645,-82.1044,5.88,1111122 
SCCF RECON,ioos:station:SCCF:56:1,2017-11-05T22:00:00Z,26.4645,-82.1044,6.37,1111122 
SCCF RECON,ioos:station:SCCF:56:1,2017-11-06T05:00:00Z,26.4645,-82.1044,5.24,1111122 
SCCF RECON,ioos:station:SCCF:56:1,2017-11-06T06:00:00Z,26.4645,-82.1044,5.17,1111122 
SCCF RECON,ioos:station:SCCF:56:1,2017-11-06T07:00:00Z,26.4645,-82.1044,4.73,1111122 
SCCF RECON,ioos:station:SCCF:56:1,2017-11-06T08:00:00Z,26.4645,-82.1044,4.47,1111122 
SCCF RECON,ioos:station:SCCF:56:1,2017-11-06T09:00:00Z,26.4645,-82.1044,4.59,1111122 
SCCF RECON,ioos:station:SCCF:56:1,2017-11-06T10:00:00Z,26.4645,-82.1044,4.5,1111122 
SCCF RECON,ioos:station:SCCF:56:1,2017-11-06T11:00:00Z,26.4645,-82.1044,4.46,1111122 
SCCF RECON,ioos:station:SCCF:56:1,2017-11-06T12:00:00Z,26.4645,-82.1044,4.41,1111122 
SCCF RECON,ioos:station:SCCF:56:1,2017-11-06T13:00:00Z,26.4645,-82.1044,4.55,1111122 
SCCF RECON,ioos:station:SCCF:56:1,2017-11-06T14:00:00Z,26.4645,-82.1044,5.07,1111122 
SCCF RECON,ioos:station:SCCF:56:1,2017-11-06T15:00:00Z,26.4645,-82.1044,5.32,1111122 
SCCF RECON,ioos:station:SCCF:56:1,2017-11-06T16:00:00Z,26.4645,-82.1044,4.54,1111122 
SCCF RECON,ioos:station:SCCF:56:1,2017-11-06T17:00:00Z,26.4645,-82.1044,4.7,1111122 
SCCF RECON,ioos:station:SCCF:56:1,2017-11-06T18:00:00Z,26.4645,-82.1044,4.52,1111122 
SCCF RECON,ioos:station:SCCF:56:1,2017-11-06T19:00:00Z,26.4645,-82.1044,4.37,1111122 
SCCF RECON,ioos:station:SCCF:56:1,2017-11-06T20:00:00Z,26.4645,-82.1044,6.61,1111122 
SCCF RECON,ioos:station:SCCF:56:1,2017-11-06T21:00:00Z,26.4645,-82.1044,5.62,1111122 
SCCF RECON,ioos:station:SCCF:56:1,2017-11-06T22:00:00Z,26.4645,-82.1044,5.8,1111122 
SCCF RECON,ioos:station:SCCF:56:1,2017-11-07T05:00:00Z,26.4645,-82.1044,5.77,1111122 
SCCF RECON,ioos:station:SCCF:56:1,2017-11-07T06:00:00Z,26.4645,-82.1044,5.74,1111122 
SCCF RECON,ioos:station:SCCF:56:1,2017-11-07T07:00:00Z,26.4645,-82.1044,5.47,1111122 
SCCF RECON,ioos:station:SCCF:56:1,2017-11-07T08:00:00Z,26.4645,-82.1044,5.51,1111122 
SCCF RECON,ioos:station:SCCF:56:1,2017-11-07T09:00:00Z,26.4645,-82.1044,4.59,1111122 
SCCF RECON,ioos:station:SCCF:56:1,2017-11-07T10:00:00Z,26.4645,-82.1044,4.71,1111122 
SCCF RECON,ioos:station:SCCF:56:1,2017-11-07T11:00:00Z,26.4645,-82.1044,4.3,1111122 
SCCF RECON,ioos:station:SCCF:56:1,2017-11-07T12:00:00Z,26.4645,-82.1044,4.33,1111122 
SCCF RECON,ioos:station:SCCF:56:1,2017-11-07T13:00:00Z,26.4645,-82.1044,4.36,1111122 
SCCF RECON,ioos:station:SCCF:56:1,2017-11-07T14:00:00Z,26.4645,-82.1044,4.65,1111122 
SCCF RECON,ioos:station:SCCF:56:1,2017-11-07T17:00:00Z,26.4645,-82.1044,4.84,1111122 
SCCF RECON,ioos:station:SCCF:56:1,2017-11-07T19:00:00Z,26.4645,-82.1044,4.66,1111122 
SCCF RECON,ioos:station:SCCF:56:1,2017-11-07T20:00:00Z,26.4645,-82.1044,6.55,1111122 
SCCF RECON,ioos:station:SCCF:56:1,2017-11-07T22:00:00Z,26.4645,-82.1044,6.76,1111122 
SCCF RECON,ioos:station:SCCF:56:1,2017-11-07T23:00:00Z,26.4645,-82.1044,6.15,1111122 
SCCF RECON,ioos:station:SCCF:56:1,2017-11-08T06:00:00Z,26.4645,-82.1044,5.33,1111122 
SCCF RECON,ioos:station:SCCF:56:1,2017-11-08T07:00:00Z,26.4645,-82.1044,5.05,1111122 
SCCF RECON,ioos:station:SCCF:56:1,2017-11-08T08:00:00Z,26.4645,-82.1044,5.14,1111122 
SCCF RECON,ioos:station:SCCF:56:1,2017-11-08T09:00:00Z,26.4645,-82.1044,4.99,1111122 
SCCF RECON,ioos:station:SCCF:56:1,2017-11-08T10:00:00Z,26.4645,-82.1044,4.7,1111122 
SCCF RECON,ioos:station:SCCF:56:1,2017-11-08T11:00:00Z,26.4645,-82.1044,4.71,1111122 
SCCF RECON,ioos:station:SCCF:56:1,2017-11-08T12:00:00Z,26.4645,-82.1044,4.32,1111122 
SCCF RECON,ioos:station:SCCF:56:1,2017-11-08T13:00:00Z,26.4645,-82.1044,4.45,1111122 
SCCF RECON,ioos:station:SCCF:56:1,2017-11-08T14:00:00Z,26.4645,-82.1044,4.61,1111122 
SCCF RECON,ioos:station:SCCF:56:1,2017-11-08T15:00:00Z,26.4645,-82.1044,4.96,1111122 
SCCF RECON,ioos:station:SCCF:56:1,2017-11-08T16:00:00Z,26.4645,-82.1044,5.54,1111122 
SCCF RECON,ioos:station:SCCF:56:1,2017-11-08T17:00:00Z,26.4645,-82.1044,5.23,1111122 
SCCF RECON,ioos:station:SCCF:56:1,2017-11-08T18:00:00Z,26.4645,-82.1044,5.63,1111122 
SCCF RECON,ioos:station:SCCF:56:1,2017-11-08T19:00:00Z,26.4645,-82.1044,6.38,1111122 
SCCF RECON,ioos:station:SCCF:56:1,2017-11-08T20:00:00Z,26.4645,-82.1044,6.32,1111122 
SCCF RECON,ioos:station:SCCF:56:1,2017-11-08T21:00:00Z,26.4645,-82.1044,6.34,1111122 
SCCF RECON,ioos:station:SCCF:56:1,2017-11-08T22:00:00Z,26.4645,-82.1044,8.26,1111122 
SCCF RECON,ioos:station:SCCF:56:1,2017-11-09T05:00:00Z,26.4645,-82.1044,6.2,1111122 
SCCF RECON,ioos:station:SCCF:56:1,2017-11-09T06:00:00Z,26.4645,-82.1044,5.78,1111122 
SCCF RECON,ioos:station:SCCF:56:1,2017-11-09T07:00:00Z,26.4645,-82.1044,5.8,1111122 
SCCF RECON,ioos:station:SCCF:56:1,2017-11-09T08:00:00Z,26.4645,-82.1044,5.67,1111122 
SCCF RECON,ioos:station:SCCF:56:1,2017-11-09T09:00:00Z,26.4645,-82.1044,4.61,1111122 
SCCF RECON,ioos:station:SCCF:56:1,2017-11-09T10:00:00Z,26.4645,-82.1044,4.85,1111122 
SCCF RECON,ioos:station:SCCF:56:1,2017-11-09T11:00:00Z,26.4645,-82.1044,4.7,1111122 
SCCF RECON,ioos:station:SCCF:56:1,2017-11-09T12:00:00Z,26.4645,-82.1044,4.9,1111122 
SCCF RECON,ioos:station:SCCF:56:1,2017-11-09T13:00:00Z,26.4645,-82.1044,4.45,1111122 
SCCF RECON,ioos:station:SCCF:56:1,2017-11-09T14:00:00Z,26.4645,-82.1044,4.51,1111122 
SCCF RECON,ioos:station:SCCF:56:1,2017-11-09T15:00:00Z,26.4645,-82.1044,4.51,1111122 
SCCF RECON,ioos:station:SCCF:56:1,2017-11-09T16:00:00Z,26.4645,-82.1044,5.36,1111122 
SCCF RECON,ioos:station:SCCF:56:1,2017-11-09T17:00:00Z,26.4645,-82.1044,6.08,1111122 
SCCF RECON,ioos:station:SCCF:56:1,2017-11-09T18:00:00Z,26.4645,-82.1044,7.61,1111122 
SCCF RECON,ioos:station:SCCF:56:1,2017-11-09T19:00:00Z,26.4645,-82.1044,7.49,1111122 
SCCF RECON,ioos:station:SCCF:56:1,2017-11-09T20:00:00Z,26.4645,-82.1044,8.56,1111122 
SCCF RECON,ioos:station:SCCF:56:1,2017-11-09T21:00:00Z,26.4645,-82.1044,7.83,1111122 
SCCF RECON,ioos:station:SCCF:56:1,2017-11-09T22:00:00Z,26.4645,-82.1044,10.28,1111122 
SCCF RECON,ioos:station:SCCF:56:1,2017-11-10T05:00:00Z,26.4645,-82.1044,8.09,1111122 
SCCF RECON,ioos:station:SCCF:56:1,2017-11-10T06:00:00Z,26.4645,-82.1044,7.63,1111122 
SCCF RECON,ioos:station:SCCF:56:1,2017-11-10T07:00:00Z,26.4645,-82.1044,7.91,1111122 
SCCF RECON,ioos:station:SCCF:56:1,2017-11-10T08:00:00Z,26.4645,-82.1044,8.04,1111122 
SCCF RECON,ioos:station:SCCF:56:1,2017-11-10T09:00:00Z,26.4645,-82.1044,7.83,1111122 
SCCF RECON,ioos:station:SCCF:56:1,2017-11-10T10:00:00Z,26.4645,-82.1044,8.41,1111122 
SCCF RECON,ioos:station:SCCF:56:1,2017-11-10T11:00:00Z,26.4645,-82.1044,7.93,1111122 
SCCF RECON,ioos:station:SCCF:56:1,2017-11-10T12:00:00Z,26.4645,-82.1044,6.36,1111122 
SCCF RECON,ioos:station:SCCF:56:1,2017-11-10T13:00:00Z,26.4645,-82.1044,5.76,1111122 
SCCF RECON,ioos:station:SCCF:56:1,2017-11-10T14:00:00Z,26.4645,-82.1044,5.35,1111122 
SCCF RECON,ioos:station:SCCF:56:1,2017-11-10T15:00:00Z,26.4645,-82.1044,4.91,1111122 
SCCF RECON,ioos:station:SCCF:56:1,2017-11-10T16:00:00Z,26.4645,-82.1044,5.5,1111122 
SCCF RECON,ioos:station:SCCF:56:1,2017-11-10T17:00:00Z,26.4645,-82.1044,6.25,1111122 
SCCF RECON,ioos:station:SCCF:56:1,2017-11-10T18:00:00Z,26.4645,-82.1044,6.6,1111122 
SCCF RECON,ioos:station:SCCF:56:1,2017-11-10T19:00:00Z,26.4645,-82.1044,8.45,1111122 
SCCF RECON,ioos:station:SCCF:56:1,2017-11-10T20:00:00Z,26.4645,-82.1044,8.55,1111122 
SCCF RECON,ioos:station:SCCF:56:1,2017-11-10T21:00:00Z,26.4645,-82.1044,11.6,1111122 
SCCF RECON,ioos:station:SCCF:56:1,2017-11-10T22:00:00Z,26.4645,-82.1044,10.63,1111122 
SCCF RECON,ioos:station:SCCF:56:1,2017-11-11T05:00:00Z,26.4645,-82.1044,7.1,1111122 
SCCF RECON,ioos:station:SCCF:56:1,2017-11-11T06:00:00Z,26.4645,-82.1044,6.6,1111122 
SCCF RECON,ioos:station:SCCF:56:1,2017-11-11T07:00:00Z,26.4645,-82.1044,6.3,1111122 
SCCF RECON,ioos:station:SCCF:56:1,2017-11-11T08:00:00Z,26.4645,-82.1044,6.64,1111122 
SCCF RECON,ioos:station:SCCF:56:1,2017-11-11T09:00:00Z,26.4645,-82.1044,6.9,1111122 
SCCF RECON,ioos:station:SCCF:56:1,2017-11-11T10:00:00Z,26.4645,-82.1044,7.31,1111122 
SCCF RECON,ioos:station:SCCF:56:1,2017-11-11T11:00:00Z,26.4645,-82.1044,6.92,1111122 
SCCF RECON,ioos:station:SCCF:56:1,2017-11-11T12:00:00Z,26.4645,-82.1044,6.67,1111122 
SCCF RECON,ioos:station:SCCF:56:1,2017-11-11T13:00:00Z,26.4645,-82.1044,6.83,1111122 
SCCF RECON,ioos:station:SCCF:56:1,2017-11-11T14:00:00Z,26.4645,-82.1044,5.46,1111122 
SCCF RECON,ioos:station:SCCF:56:1,2017-11-11T15:00:00Z,26.4645,-82.1044,5.7,1111122 
SCCF RECON,ioos:station:SCCF:56:1,2017-11-11T16:00:00Z,26.4645,-82.1044,5.4,1111122 
SCCF RECON,ioos:station:SCCF:56:1,2017-11-11T17:00:00Z,26.4645,-82.1044,5.68,1111122 
SCCF RECON,ioos:station:SCCF:56:1,2017-11-11T18:00:00Z,26.4645,-82.1044,6.2,1111122 
SCCF RECON,ioos:station:SCCF:56:1,2017-11-11T19:00:00Z,26.4645,-82.1044,7.16,1111122 
SCCF RECON,ioos:station:SCCF:56:1,2017-11-11T20:00:00Z,26.4645,-82.1044,7.29,1111122 
SCCF RECON,ioos:station:SCCF:56:1,2017-11-11T21:00:00Z,26.4645,-82.1044,8.78,1111122 
SCCF RECON,ioos:station:SCCF:56:1,2017-11-11T22:00:00Z,26.4645,-82.1044,9.3,1111122 
SCCF RECON,ioos:station:SCCF:56:1,2017-11-12T05:00:00Z,26.4645,-82.1044,6.28,1111122 
SCCF RECON,ioos:station:SCCF:56:1,2017-11-12T06:00:00Z,26.4645,-82.1044,5.8,1111122 
SCCF RECON,ioos:station:SCCF:56:1,2017-11-12T07:00:00Z,26.4645,-82.1044,5.39,1111122 
SCCF RECON,ioos:station:SCCF:56:1,2017-11-12T08:00:00Z,26.4645,-82.1044,5.49,1111122 
SCCF RECON,ioos:station:SCCF:56:1,2017-11-12T09:00:00Z,26.4645,-82.1044,5.61,1111122 
SCCF RECON,ioos:station:SCCF:56:1,2017-11-12T10:00:00Z,26.4645,-82.1044,5.99,1111122 
SCCF RECON,ioos:station:SCCF:56:1,2017-11-12T11:00:00Z,26.4645,-82.1044,5.66,1111122 
SCCF RECON,ioos:station:SCCF:56:1,2017-11-12T12:00:00Z,26.4645,-82.1044,5.51,1111122 
SCCF RECON,ioos:station:SCCF:56:1,2017-11-12T13:00:00Z,26.4645,-82.1044,5.5,1111122 
SCCF RECON,ioos:station:SCCF:56:1,2017-11-12T14:00:00Z,26.4645,-82.1044,5.02,1111122 
SCCF RECON,ioos:station:SCCF:56:1,2017-11-12T15:00:00Z,26.4645,-82.1044,4.58,1111122 
SCCF RECON,ioos:station:SCCF:56:1,2017-11-12T16:00:00Z,26.4645,-82.1044,4.46,1111122 
SCCF RECON,ioos:station:SCCF:56:1,2017-11-12T17:00:00Z,26.4645,-82.1044,5.39,1111122 
SCCF RECON,ioos:station:SCCF:56:1,2017-11-12T18:00:00Z,26.4645,-82.1044,5.95,1111122 
SCCF RECON,ioos:station:SCCF:56:1,2017-11-12T19:00:00Z,26.4645,-82.1044,6.54,1111122 
SCCF RECON,ioos:station:SCCF:56:1,2017-11-12T20:00:00Z,26.4645,-82.1044,8.32,1111122 
SCCF RECON,ioos:station:SCCF:56:1,2017-11-12T21:00:00Z,26.4645,-82.1044,6.57,1111122 
SCCF RECON,ioos:station:SCCF:56:1,2017-11-12T22:00:00Z,26.4645,-82.1044,8.77,1111122 
SCCF RECON,ioos:station:SCCF:56:1,2017-11-13T05:00:00Z,26.4645,-82.1044,5.18,1111122 
SCCF RECON,ioos:station:SCCF:56:1,2017-11-13T06:00:00Z,26.4645,-82.1044,5.01,1111122 
SCCF RECON,ioos:station:SCCF:56:1,2017-11-13T07:00:00Z,26.4645,-82.1044,4.79,1111122 
SCCF RECON,ioos:station:SCCF:56:1,2017-11-13T08:00:00Z,26.4645,-82.1044,4.72,1111122 
SCCF RECON,ioos:station:SCCF:56:1,2017-11-13T09:00:00Z,26.4645,-82.1044,4.86,1111122 
SCCF RECON,ioos:station:SCCF:56:1,2017-11-13T10:00:00Z,26.4645,-82.1044,4.98,1111122 
SCCF RECON,ioos:station:SCCF:56:1,2017-11-13T11:00:00Z,26.4645,-82.1044,4.88,1111122 
SCCF RECON,ioos:station:SCCF:56:1,2017-11-13T12:00:00Z,26.4645,-82.1044,5.02,1111122 
SCCF RECON,ioos:station:SCCF:56:1,2017-11-13T13:00:00Z,26.4645,-82.1044,5.11,1111122 
SCCF RECON,ioos:station:SCCF:56:1,2017-11-13T14:00:00Z,26.4645,-82.1044,4.7,1111122 
SCCF RECON,ioos:station:SCCF:56:1,2017-11-13T15:00:00Z,26.4645,-82.1044,4.82,1111122 
SCCF RECON,ioos:station:SCCF:56:1,2017-11-13T16:00:00Z,26.4645,-82.1044,4.38,1111122 
SCCF RECON,ioos:station:SCCF:56:1,2017-11-13T17:00:00Z,26.4645,-82.1044,4.18,1111122 
SCCF RECON,ioos:station:SCCF:56:1,2017-11-13T18:00:00Z,26.4645,-82.1044,4.74,1111122 
SCCF RECON,ioos:station:SCCF:56:1,2017-11-13T19:00:00Z,26.4645,-82.1044,5.35,1111122 
SCCF RECON,ioos:station:SCCF:56:1,2017-11-13T20:00:00Z,26.4645,-82.1044,5.94,1111122 
SCCF RECON,ioos:station:SCCF:56:1,2017-11-13T21:00:00Z,26.4645,-82.1044,7.77,1111122 
SCCF RECON,ioos:station:SCCF:56:1,2017-11-13T23:00:00Z,26.4645,-82.1044,7.59,1111122 
SCCF RECON,ioos:station:SCCF:56:1,2017-11-14T05:00:00Z,26.4645,-82.1044,5.06,1111122 
SCCF RECON,ioos:station:SCCF:56:1,2017-11-14T06:00:00Z,26.4645,-82.1044,4.96,1111122 
SCCF RECON,ioos:station:SCCF:56:1,2017-11-14T07:00:00Z,26.4645,-82.1044,4.72,1111122 
SCCF RECON,ioos:station:SCCF:56:1,2017-11-14T08:00:00Z,26.4645,-82.1044,4.68,1111122 
SCCF RECON,ioos:station:SCCF:56:1,2017-11-14T09:00:00Z,26.4645,-82.1044,4.73,1111122 
SCCF RECON,ioos:station:SCCF:56:1,2017-11-14T10:00:00Z,26.4645,-82.1044,5.06,1111122 
SCCF RECON,ioos:station:SCCF:56:1,2017-11-14T11:00:00Z,26.4645,-82.1044,5.02,1111122 
SCCF RECON,ioos:station:SCCF:56:1,2017-11-14T12:00:00Z,26.4645,-82.1044,5.17,1111122 
SCCF RECON,ioos:station:SCCF:56:1,2017-11-14T13:00:00Z,26.4645,-82.1044,5.0,1111122 
SCCF RECON,ioos:station:SCCF:56:1,2017-11-14T14:00:00Z,26.4645,-82.1044,4.72,1111122 
SCCF RECON,ioos:station:SCCF:56:1,2017-11-14T15:00:00Z,26.4645,-82.1044,5.09,1111122 
SCCF RECON,ioos:station:SCCF:56:1,2017-11-14T16:00:00Z,26.4645,-82.1044,5.64,1111122 
SCCF RECON,ioos:station:SCCF:56:1,2017-11-14T17:00:00Z,26.4645,-82.1044,5.1,1111122 
SCCF RECON,ioos:station:SCCF:56:1,2017-11-14T18:00:00Z,26.4645,-82.1044,5.17,1111122 
SCCF RECON,ioos:station:SCCF:56:1,2017-11-14T19:00:00Z,26.4645,-82.1044,5.49,1111122 
SCCF RECON,ioos:station:SCCF:56:1,2017-11-14T20:00:00Z,26.4645,-82.1044,6.14,1111122 
SCCF RECON,ioos:station:SCCF:56:1,2017-11-14T21:00:00Z,26.4645,-82.1044,6.14,1111122 
SCCF RECON,ioos:station:SCCF:56:1,2017-11-14T22:00:00Z,26.4645,-82.1044,7.5,1111122 
SCCF RECON,ioos:station:SCCF:56:1,2017-11-15T05:00:00Z,26.4645,-82.1044,5.23,1111122 
SCCF RECON,ioos:station:SCCF:56:1,2017-11-15T06:00:00Z,26.4645,-82.1044,4.86,1111122 
SCCF RECON,ioos:station:SCCF:56:1,2017-11-15T07:00:00Z,26.4645,-82.1044,4.73,1111122 
SCCF RECON,ioos:station:SCCF:56:1,2017-11-15T08:00:00Z,26.4645,-82.1044,4.63,1111122 
SCCF RECON,ioos:station:SCCF:56:1,2017-11-15T09:00:00Z,26.4645,-82.1044,3.92,1111122 
SCCF RECON,ioos:station:SCCF:56:1,2017-11-15T10:00:00Z,26.4645,-82.1044,4.81,1111122 
SCCF RECON,ioos:station:SCCF:56:1,2017-11-15T11:00:00Z,26.4645,-82.1044,4.93,1111122 
SCCF RECON,ioos:station:SCCF:56:1,2017-11-15T12:00:00Z,26.4645,-82.1044,5.2,1111122 
SCCF RECON,ioos:station:SCCF:56:1,2017-11-15T13:00:00Z,26.4645,-82.1044,5.52,1111122 
SCCF RECON,ioos:station:SCCF:56:1,2017-11-15T14:00:00Z,26.4645,-82.1044,5.39,1111122 
SCCF RECON,ioos:station:SCCF:56:1,2017-11-15T15:00:00Z,26.4645,-82.1044,5.17,1111122 
SCCF RECON,ioos:station:SCCF:56:1,2017-11-15T16:00:00Z,26.4645,-82.1044,5.44,1111122 
SCCF RECON,ioos:station:SCCF:56:1,2017-11-15T17:00:00Z,26.4645,-82.1044,5.37,1111122 
SCCF RECON,ioos:station:SCCF:56:1,2017-11-15T18:00:00Z,26.4645,-82.1044,5.04,1111122 
SCCF RECON,ioos:station:SCCF:56:1,2017-11-15T19:00:00Z,26.4645,-82.1044,5.71,1111122 
SCCF RECON,ioos:station:SCCF:56:1,2017-11-15T20:00:00Z,26.4645,-82.1044,6.0,1111122 
SCCF RECON,ioos:station:SCCF:56:1,2017-11-15T21:00:00Z,26.4645,-82.1044,6.26,1111122 
SCCF RECON,ioos:station:SCCF:56:1,2017-11-15T22:00:00Z,26.4645,-82.1044,7.39,1111122 
SCCF RECON,ioos:station:SCCF:56:1,2017-11-16T05:00:00Z,26.4645,-82.1044,5.25,1111122 
SCCF RECON,ioos:station:SCCF:56:1,2017-11-16T06:00:00Z,26.4645,-82.1044,4.99,1111122 
SCCF RECON,ioos:station:SCCF:56:1,2017-11-16T07:00:00Z,26.4645,-82.1044,5.09,1111122 
SCCF RECON,ioos:station:SCCF:56:1,2017-11-16T08:00:00Z,26.4645,-82.1044,4.69,1111122 
SCCF RECON,ioos:station:SCCF:56:1,2017-11-16T09:00:00Z,26.4645,-82.1044,4.81,1111122 
SCCF RECON,ioos:station:SCCF:56:1,2017-11-16T10:00:00Z,26.4645,-82.1044,4.82,1111122 
SCCF RECON,ioos:station:SCCF:56:1,2017-11-16T11:00:00Z,26.4645,-82.1044,4.72,1111122 